Regional Weather Roundup
Issued by NWS

Home | Current Version | Previous Version | Text Only | Print | Product List | Glossary Off
Versions: 1 2 3 4 5 6 7 8 9 10 11 12 13 14 15 16 17 18 19 20 21 22 23 24 25 26 27 28 29 30 31 32 33 34 35 36 37 38 39 40 41 42 43 44 45 46 47 48 49 50

000
ASUS43 KFSD 030602
RWRSD

WEATHER ROUNDUP FOR SOUTH DAKOTA
NATIONAL WEATHER SERVICE SIOUX FALLS SD
100 AM CDT MON AUG 03 2015

NOTE: "FAIR" INDICATES FEW OR NO CLOUDS BELOW 12,000 FEET WITH NO
SIGNIFICANT WEATHER AND/OR OBSTRUCTIONS TO VISIBILITY.


SDZ001>005-009-010-012>017-030700-
NORTHWEST AND NORTH CENTRAL SOUTH DAKOTA

CITY           SKY/WX    TMP DP  RH WIND       PRES   REMARKS
BUFFALO          N/A     62  51  67 NE8       29.99R
FAITH            N/A     63  46  54 E8        30.02R
MOBRIDGE       CLEAR     58  55  90 CALM      29.97R
$$

SDZ012>016-024>037-041>051-057-063-072>074-030700-
SOUTHWEST AND SOUTH CENTRAL SOUTH DAKOTA

CITY           SKY/WX    TMP DP  RH WIND       PRES   REMARKS
RAPID CTY ARPT CLEAR     64  53  67 E6        30.04R
PIERRE         CLEAR     63  53  70 NE8       29.96S
CUSTER         CLEAR     60  49  66 NE3       30.17S
PHILIP         CLEAR     64  55  72 E5        29.99R
PINE RIDGE     CLEAR     64  56  75 E5        30.03R
WINNER         FAIR      67  58  72 SE3       29.98R
$$

SDZ004>011-016>023-039-040-030700-
NORTHEAST SOUTH DAKOTA

CITY           SKY/WX    TMP DP  RH WIND       PRES   REMARKS
ABERDEEN       CLEAR     58  54  86 CALM      29.95R
WATERTOWN      CLEAR     61  55  81 CALM      29.95R
BROOKINGS      CLEAR     61  55  82 CALM      29.97S
SISSETON         N/A     55  50  83 W5        29.91R
$$

SDZ017-020-022-023-036>040-048>070-030700-
SOUTHEAST SOUTH DAKOTA

CITY           SKY/WX    TMP DP  RH WIND       PRES   REMARKS
SIOUX FALLS    CLEAR     62  57  83 N6        29.95R
HURON          CLEAR     62  58  86 CALM      29.94R
CHAMBERLAIN    CLEAR     62  57  84 CALM      29.96S
MITCHELL       CLEAR     64  60  87 CALM      29.95R
YANKTON        CLEAR     64  57  77 N9        29.93S
$$

ABBREVIATIONS USED IN REMARKS
   TC - TEMPERATURE IN CELSIUS
  WCI - WIND CHILL INDEX
   HX - HEAT INDEX
  VSB - VISIBILITY



USA.gov is the U.S. government's official web portal to all federal, state and local government web resources and services.